Location: Lake Sonoma
(38.7200°N, 123.0564°W)
Time: 13:37:36
(UTC-07:00)

Amateur Radio Satellites - All Passes

Search period start: 23 October 2014 13:07
Search period end: 24 October 2014 13:07
Location: Lake Sonoma, 38.7200°N, 123.0564°W

Satellite Date Start Highest point End Downlink Frequencies (MHz)
Time Altitude Azimuth
KITSAT 1 23 Oct 13:08:18 13:16:23 89° 118° (ESE) 13:24:31 435.175 FM
AO-Echo 23 Oct 13:11:55 13:14:44 15° 62° (ENE) 13:17:35 ?
Uribyol 2 23 Oct 13:21:02 13:24:23 18° 63° (ENE) 13:27:44 436.500 FM
ITAMSAT 1 23 Oct 13:26:30 13:30:00 18° 63° (ENE) 13:33:29 435.822 SSB
Gurwin Techsat 1B 23 Oct 13:39:10 13:41:17 12° 60° (ENE) 13:43:25 435.225 FM
TMSAT-1 23 Oct 13:51:40 13:53:32 12° 60° (ENE) 13:55:24 436.925 FM
Sapphire 23 Oct 13:53:51 13:59:17 67° 60° (ENE) 14:04:40 437.095 MHz 1200 baud AX-25 AFSK
Oscar 19 23 Oct 13:55:42 14:00:52 84° 76° (ENE) 14:06:02 437.125 CW, 437.150 USB
SO-50 23 Oct 13:56:46 14:01:14 75° 302° (WNW) 14:05:52 436.795 FM
ISS 23 Oct 14:05:21 14:08:37 54° 324° (NW) 14:11:54 145.800 FM
AO-27 23 Oct 14:09:56 14:14:54 47° 71° (ENE) 14:19:54 436.795 MHz FM
PCSat 23 Oct 14:16:36 14:22:01 73° 245° (WSW) 14:27:24 145.825 MHz
JAS-1B 23 Oct 14:34:47 14:40:49 58° 258° (WSW) 14:46:26 435.800 - 435.900 CW/SSB
Oscar 16 23 Oct 14:41:51 14:46:32 34° 263° (W) 14:51:13 437.025 USB, Beacon 2401.1428
AO-Echo 23 Oct 14:48:10 14:52:56 59° 259° (W) 14:57:53 ?
Uribyol 2 23 Oct 14:58:14 15:03:21 58° 259° (W) 15:08:31 436.500 FM
ITAMSAT 1 23 Oct 15:03:57 15:09:01 54° 259° (W) 15:14:09 435.822 SSB
KITSAT 1 23 Oct 15:06:39 15:12:51 24° 320° (NW) 15:19:06 435.175 FM
Gurwin Techsat 1B 23 Oct 15:15:11 15:20:30 84° 257° (WSW) 15:25:51 435.225 FM
AO-7 23 Oct 15:21:03 15:28:07 33° 59° (ENE) 15:35:11 29.400 - 29.500 MHz
TMSAT-1 23 Oct 15:27:21 15:32:39 87° 256° (WSW) 15:38:00 436.925 FM
UOSAT-12 23 Oct 15:28:02 15:32:39 84° 120° (ESE) 15:37:23 437.025 FM, 437.400 FM
Sapphire 23 Oct 15:39:03 15:42:04 15° 256° (WSW) 15:45:05 437.095 MHz 1200 baud AX-25 AFSK
Oscar 19 23 Oct 15:40:44 15:40:47 10° 271° (W) 15:40:50 437.125 CW, 437.150 USB
SO-50 23 Oct 15:41:15 15:42:38 11° 322° (NW) 15:44:02 436.795 FM
ISS 23 Oct 15:44:11 15:45:55 13° 343° (NNW) 15:47:38 145.800 FM
AO-27 23 Oct 15:50:55 15:54:37 20° 267° (W) 15:58:21 436.795 MHz FM
Uosat F 23 Oct 16:31:39 16:36:34 58° 73° (ENE) 16:41:30 435.120 FM
Hamsat 23 Oct 17:02:22 17:04:08 12° 65° (ENE) 17:05:53 145.90 MHz
Saudisat 1A 23 Oct 17:08:44 17:13:07 59° 56° (NE) 17:17:28 436.775 MHz
UOSAT-12 23 Oct 17:10:55 17:13:27 14° 319° (NW) 17:15:59 437.025 FM, 437.400 FM
AO-7 23 Oct 17:12:25 17:20:29 56° 257° (WSW) 17:28:36 29.400 - 29.500 MHz
JAS-2 23 Oct 17:43:40 17:49:24 65° 72° (ENE) 17:55:56 435.800 - 435.900 CW/SSB, 435.910 FM
OPAL 23 Oct 18:09:59 18:14:46 46° 102° (ESE) 18:19:30 ?
Uosat F 23 Oct 18:12:53 18:15:41 15° 268° (W) 18:18:31 435.120 FM
Hamsat 23 Oct 18:35:29 18:39:36 53° 260° (W) 18:43:43 145.90 MHz
Saudisat 1A 23 Oct 18:50:07 18:52:10 13° 252° (WSW) 18:54:12 436.775 MHz
ISS 23 Oct 18:59:08 19:01:36 19° 24° (NNE) 19:04:04 145.800 FM
SO-67 23 Oct 19:07:37 19:10:47 36° 74° (ENE) 19:13:58 435.3500 MHz FM
KITSAT 1 23 Oct 19:10:26 19:12:23 11° 22° (NNE) 19:14:20 435.175 FM
HO-68 23 Oct 19:25:32 19:28:46 14° 53° (NE) 19:32:00 435.675 MHz FM
JAS-2 23 Oct 19:31:27 19:35:12 17° 272° (W) 19:39:13 435.800 - 435.900 CW/SSB, 435.910 FM
OPAL 23 Oct 19:49:47 19:53:18 20° 298° (WNW) 19:56:47 ?
STRAND 1 23 Oct 19:52:12 19:57:18 59° 101° (E) 20:02:21 ?
ISS 23 Oct 20:35:15 20:38:35 68° 221° (SW) 20:41:53 145.800 FM
SO-67 23 Oct 20:43:07 20:43:55 11° 268° (W) 20:44:42 435.3500 MHz FM
Oscar 11 23 Oct 20:49:44 20:50:41 11° 63° (ENE) 20:51:37 145.825 FM, Beacon 2401.500 USB
SO-50 23 Oct 20:51:24 20:52:51 11° 38° (NE) 20:54:19 436.795 FM
KITSAT 1 23 Oct 21:03:21 21:10:41 36° 48° (NE) 21:17:57 435.175 FM
HO-68 23 Oct 21:08:07 21:15:14 74° 71° (ENE) 21:22:24 435.675 MHz FM
RS-15 23 Oct 21:22:03 21:30:33 27° 103° (ESE) 21:38:55 29.354 - 29.394 USB, Beacon 29.352 USB
STRAND 1 23 Oct 21:32:47 21:35:59 17° 297° (WNW) 21:39:10 ?
ZACube-1 23 Oct 21:33:54 21:36:34 15° 65° (ENE) 21:39:12 437.345 MHz
UKube-1 23 Oct 21:39:34 21:43:42 44° 72° (ENE) 21:47:52 145.840 MHz, 145.915 MHz
FUNcube-1 23 Oct 22:16:57 22:21:17 43° 73° (ENE) 22:25:35 145.950 - 145.970 MHz USB
Oscar 11 23 Oct 22:21:57 22:26:16 68° 259° (WSW) 22:30:35 145.825 FM, Beacon 2401.500 USB
SO-50 23 Oct 22:29:28 22:34:18 68° 57° (ENE) 22:39:10 436.795 FM
KITSAT 1 23 Oct 22:58:33 23:06:20 54° 248° (WSW) 23:14:06 435.175 FM
HO-68 23 Oct 22:58:45 23:03:32 19° 268° (W) 23:08:22 435.675 MHz FM
ZACube-1 23 Oct 23:08:02 23:12:31 51° 260° (W) 23:16:58 437.345 MHz
UKube-1 23 Oct 23:17:37 23:20:06 15° 267° (W) 23:22:35 145.840 MHz, 145.915 MHz
RS-15 23 Oct 23:30:42 23:41:43 76° 303° (WNW) 23:52:42 29.354 - 29.394 USB, Beacon 29.352 USB
FUNcube-1 23 Oct 23:54:49 23:57:49 17° 267° (W) 00:00:48 145.950 - 145.970 MHz USB
UOSAT-12 23 Oct 23:59:03 00:03:39 49° 54° (NE) 00:08:09 437.025 FM, 437.400 FM
MaSat-1 24 Oct 00:00:51 00:04:53 44° 111° (ESE) 00:08:36 437.345 MHz
AO-40 24 Oct 00:05:23 00:55:38 13° 241° (WSW) 02:03:52 Beacon 2401.320
SO-50 24 Oct 00:11:55 00:14:18 14° 252° (WSW) 00:16:41 436.795 FM
MaSat-1 24 Oct 01:38:15 01:40:40 15° 304° (WNW) 01:42:58 437.345 MHz
UOSAT-12 24 Oct 01:40:17 01:43:22 18° 251° (WSW) 01:46:25 437.025 FM, 437.400 FM
RS-15 24 Oct 01:47:41 01:56:13 25° 330° (NNW) 02:04:52 29.354 - 29.394 USB, Beacon 29.352 USB
Oscar 19 24 Oct 02:09:04 02:13:38 32° 97° (E) 02:18:11 437.125 CW, 437.150 USB
JAS-1B 24 Oct 02:18:04 02:24:26 41° 100° (E) 02:31:53 435.800 - 435.900 CW/SSB
AO-27 24 Oct 02:25:18 02:28:55 19° 93° (E) 02:32:31 436.795 MHz FM
Oscar 16 24 Oct 02:54:17 02:59:26 88° 284° (WNW) 03:04:33 437.025 USB, Beacon 2401.1428
AO-Echo 24 Oct 02:56:26 03:01:37 51° 100° (E) 03:06:46 ?
Uribyol 2 24 Oct 03:12:18 03:17:27 57° 101° (E) 03:22:32 436.500 FM
PCSat 24 Oct 03:15:50 03:19:17 17° 105° (ESE) 03:22:45 145.825 MHz
ITAMSAT 1 24 Oct 03:18:05 03:23:16 61° 101° (ESE) 03:28:24 435.822 SSB
Gurwin Techsat 1B 24 Oct 03:32:58 03:38:02 44° 99° (E) 03:43:04 435.225 FM
TMSAT-1 24 Oct 03:44:47 03:49:49 42° 98° (E) 03:54:47 436.925 FM
Oscar 19 24 Oct 03:48:33 03:52:51 28° 293° (WNW) 03:57:09 437.125 CW, 437.150 USB
AO-27 24 Oct 04:03:38 04:08:40 49° 289° (WNW) 04:13:41 436.795 MHz FM
RS-15 24 Oct 04:07:49 04:14:18 17° 7° (N) 04:20:53 29.354 - 29.394 USB, Beacon 29.352 USB
JAS-1B 24 Oct 04:09:00 04:14:57 36° 292° (WNW) 04:21:53 435.800 - 435.900 CW/SSB
Sapphire 24 Oct 04:34:04 04:39:28 83° 116° (ESE) 04:44:55 437.095 MHz 1200 baud AX-25 AFSK
AO-Echo 24 Oct 04:36:10 04:39:57 20° 295° (WNW) 04:43:45 ?
Oscar 16 24 Oct 04:37:04 04:37:58 10° 301° (WNW) 04:38:53 437.025 USB, Beacon 2401.1428
Uosat F 24 Oct 04:41:39 04:45:17 20° 94° (E) 04:48:54 435.120 FM
Uribyol 2 24 Oct 04:53:04 04:56:26 18° 297° (WNW) 04:59:46 436.500 FM
PCSat 24 Oct 04:56:50 05:02:09 59° 301° (WNW) 05:07:32 145.825 MHz
JAS-2 24 Oct 04:57:03 04:59:50 12° 85° (E) 05:02:36 435.800 - 435.900 CW/SSB, 435.910 FM
ITAMSAT 1 24 Oct 04:59:01 05:02:14 17° 298° (WNW) 05:05:26 435.822 SSB
Gurwin Techsat 1B 24 Oct 05:13:37 05:17:41 23° 295° (WNW) 05:21:44 435.225 FM
AO-7 24 Oct 05:15:09 05:23:19 56° 103° (ESE) 05:31:27 29.400 - 29.500 MHz
OPAL 24 Oct 05:23:24 05:28:33 75° 72° (ENE) 05:33:39 ?
TMSAT-1 24 Oct 05:25:18 05:29:27 24° 294° (WNW) 05:33:35 436.925 FM
Uosat F 24 Oct 06:19:27 06:24:15 44° 289° (WNW) 06:29:01 435.120 FM
Sapphire 24 Oct 06:20:17 06:23:34 16° 315° (NW) 06:26:53 437.095 MHz 1200 baud AX-25 AFSK
RS-15 24 Oct 06:21:29 06:31:28 36° 41° (NE) 06:41:43 29.354 - 29.394 USB, Beacon 29.352 USB
Hamsat 24 Oct 06:22:38 06:26:15 27° 96° (E) 06:29:51 145.90 MHz
JAS-2 24 Oct 06:38:06 06:45:55 72° 102° (ESE) 06:53:41 435.800 - 435.900 CW/SSB, 435.910 FM
PCSat 24 Oct 06:45:57 06:46:44 10° 321° (NW) 06:47:32 145.825 MHz
OPAL 24 Oct 07:05:59 07:07:53 12° 267° (W) 07:09:47 ?
STRAND 1 24 Oct 07:06:44 07:11:50 74° 74° (ENE) 07:16:59 ?
AO-7 24 Oct 07:08:35 07:15:40 33° 301° (WNW) 07:22:46 29.400 - 29.500 MHz
Saudisat 1A 24 Oct 07:14:52 07:18:07 21° 111° (ESE) 07:21:23 436.775 MHz
Hamsat 24 Oct 07:58:47 08:02:03 22° 291° (WNW) 08:05:19 145.90 MHz
SO-67 24 Oct 08:04:40 08:08:04 53° 100° (E) 08:11:25 435.3500 MHz FM
PANSAT 24 Oct 08:21:39 08:23:37 14° 168° (SSE) 08:25:36 not established
JAS-2 24 Oct 08:24:14 08:30:12 25° 299° (WNW) 08:36:13 435.800 - 435.900 CW/SSB, 435.910 FM
RS-15 24 Oct 08:33:39 08:44:48 74° 244° (WSW) 08:56:28 29.354 - 29.394 USB, Beacon 29.352 USB
HO-68 24 Oct 08:40:10 08:43:24 13° 89° (E) 08:46:37 435.675 MHz FM
STRAND 1 24 Oct 08:49:42 08:51:31 12° 270° (W) 08:53:21 ?
Saudisat 1A 24 Oct 08:53:19 08:57:25 38° 307° (NW) 09:01:33 436.775 MHz
MaSat-1 24 Oct 09:48:27 09:50:59 46° 63° (ENE) 09:53:19 437.345 MHz
PANSAT 24 Oct 10:00:31 10:03:08 18° 181° (S) 10:05:44 not established
Oscar 10/S400 24 Oct 10:05:37 00:43:05 39° 224° (SW) 10:34:59 145.825 - 145.975 CW/USB, Beacon 145.810 USB
Oscar 11 24 Oct 10:11:29 10:14:56 23° 95° (E) 10:18:22 145.825 FM, Beacon 2401.500 USB
HO-68 24 Oct 10:24:45 10:32:00 86° 106° (ESE) 10:39:11 435.675 MHz FM
RS-15 24 Oct 10:49:47 10:55:14 15° 262° (W) 11:00:49 29.354 - 29.394 USB, Beacon 29.352 USB
ZACube-1 24 Oct 10:59:01 11:02:51 32° 97° (E) 11:06:35 437.345 MHz
UKube-1 24 Oct 11:04:50 11:09:13 80° 284° (WNW) 11:13:34 145.840 MHz, 145.915 MHz
KITSAT 1 24 Oct 11:31:25 11:37:47 26° 105° (ESE) 11:44:09 435.175 FM
PANSAT 24 Oct 11:41:03 11:42:36 12° 194° (SSW) 11:44:10 not established
FUNcube-1 24 Oct 11:43:35 11:47:51 75° 284° (WNW) 11:52:00 145.950 - 145.970 MHz USB
Oscar 11 24 Oct 11:47:24 11:51:04 28° 290° (WNW) 11:54:43 145.825 FM, Beacon 2401.500 USB
PCSat 24 Oct 12:04:29 12:07:11 14° 43° (NE) 12:09:52 145.825 MHz
HO-68 24 Oct 12:14:13 12:18:47 18° 304° (NW) 12:23:20 435.675 MHz FM
Oscar 16 24 Oct 12:33:40 12:36:19 14° 62° (ENE) 12:38:57 437.025 USB, Beacon 2401.1428
ZACube-1 24 Oct 12:35:57 12:39:01 20° 293° (WNW) 12:42:02 437.345 MHz
SO-50 24 Oct 12:43:45 12:47:34 28° 113° (ESE) 12:51:30 436.795 FM
